[Date Prev][Date Next][Thread Prev][Thread Next] - [Date Index][Thread Index][Author Index]

2 Line ISS Keps 11-16



ISS
1 25544U 98067A   02320.20396904  .00036645  00000-0  46399-3 0  3846
2 25544  51.6400   9.7169 0013927 142.6301 261.1771 15.59013207227682


----
Via the sarex mailing list at AMSAT.ORG courtesy of AMSAT-NA.
To unsubscribe, send "unsubscribe sarex" to Majordomo@amsat.org



AMSAT Top AMSAT Home